Time,TemperatureF,DewpointF,PressureIn,WindDirection,WindDirectionDegrees,WindSpeedMPH,WindSpeedGustMPH,Humidity,HourlyPrecipIn,Conditions,Clouds,dailyrainin,SoftwareType,DateUTC
2013-08-06 00:12:00,67.1,61.3,29.82,North,-999,-999.0,0.0,82,0.00,,,0.00,meteohub,2013-08-06 05:12:00,
2013-08-06 00:13:00,67.1,61.3,29.82,North,-999,-999.0,0.0,82,0.00,,,0.00,meteohub,2013-08-06 05:13:00,
2013-08-06 00:14:00,66.9,61.2,29.82,North,-999,-999.0,0.0,82,0.00,,,0.00,meteohub,2013-08-06 05:14:00,
2013-08-06 00:19:00,66.9,61.2,29.82,NW,323,0.0,-999.0,82,0.00,,,0.00,meteohub,2013-08-06 05:19:00,
2013-08-06 00:21:00,66.7,61.0,29.82,NW,323,0.0,0.0,82,0.00,,,0.00,meteohub,2013-08-06 05:21:00,
2013-08-06 00:26:00,66.6,61.2,29.82,NW,323,0.0,0.0,83,0.00,,,0.00,meteohub,2013-08-06 05:26:00,
2013-08-06 00:31:00,66.4,60.8,29.81,NW,323,0.0,0.0,82,0.00,,,0.00,meteohub,2013-08-06 05:31:00,
2013-08-06 00:36:00,66.4,61.0,29.81,NW,323,0.0,0.0,83,0.00,,,0.00,meteohub,2013-08-06 05:36:00,
2013-08-06 00:41:00,66.0,60.6,29.81,NW,323,0.0,0.0,83,0.00,,,0.00,meteohub,2013-08-06 05:41:00,
2013-08-06 00:46:00,65.8,60.6,29.81,NW,323,0.0,0.0,83,0.00,,,0.00,meteohub,2013-08-06 05:46:00,
2013-08-06 00:51:00,65.7,60.4,29.81,NW,323,0.0,0.0,83,0.00,,,0.00,meteohub,2013-08-06 05:51:00,
2013-08-06 00:56:00,65.5,60.3,29.81,NW,323,0.0,0.0,83,0.00,,,0.00,meteohub,2013-08-06 05:56:00,
2013-08-06 01:01:00,65.3,60.1,29.81,NW,323,0.0,0.0,83,0.00,,,0.00,meteohub,2013-08-06 06:01:00,
2013-08-06 01:06:00,65.1,59.9,29.81,NW,323,0.0,0.0,83,0.00,,,0.00,meteohub,2013-08-06 06:06:00,
2013-08-06 01:11:00,64.9,59.7,29.81,NW,323,0.0,0.0,83,0.00,,,0.00,meteohub,2013-08-06 06:11:00,
2013-08-06 01:16:00,64.8,59.5,29.81,NW,323,0.0,0.0,83,0.00,,,0.00,meteohub,2013-08-06 06:16:00,
2013-08-06 01:21:00,64.6,59.7,29.81,NW,323,0.0,0.0,84,0.00,,,0.00,meteohub,2013-08-06 06:21:00,
2013-08-06 01:27:00,64.2,59.4,29.81,NW,323,0.0,0.0,84,0.00,,,0.00,meteohub,2013-08-06 06:27:00,
2013-08-06 01:32:00,64.2,59.4,29.81,NW,323,0.0,0.0,84,0.00,,,0.00,meteohub,2013-08-06 06:32:00,
2013-08-06 01:37:00,64.0,59.2,29.80,NW,323,0.0,0.0,84,0.00,,,0.00,meteohub,2013-08-06 06:37:00,
2013-08-06 01:42:00,63.9,59.0,29.81,NW,323,0.0,0.0,84,0.00,,,0.00,meteohub,2013-08-06 06:42:00,
2013-08-06 01:47:00,63.9,59.0,29.80,NW,323,0.0,0.0,84,0.00,,,0.00,meteohub,2013-08-06 06:47:00,
2013-08-06 01:52:00,63.7,58.8,29.80,NW,323,0.0,0.0,84,0.00,,,0.00,meteohub,2013-08-06 06:52:00,
2013-08-06 01:57:00,63.3,58.5,29.80,NW,323,0.0,0.0,84,0.00,,,0.00,meteohub,2013-08-06 06:57:00,
2013-08-06 02:02:00,63.3,58.5,29.80,NW,323,0.0,0.0,84,0.00,,,0.00,meteohub,2013-08-06 07:02:00,
2013-08-06 02:07:00,63.1,58.6,29.81,NW,323,0.0,0.0,85,0.00,,,0.00,meteohub,2013-08-06 07:07:00,
2013-08-06 02:12:00,63.0,58.5,29.81,NW,323,0.0,0.0,85,0.00,,,0.00,meteohub,2013-08-06 07:12:00,
2013-08-06 02:17:00,62.8,58.3,29.81,NW,323,0.0,0.0,85,0.00,,,0.00,meteohub,2013-08-06 07:17:00,
2013-08-06 02:22:00,62.8,58.3,29.81,NW,323,0.0,0.0,85,0.00,,,0.00,meteohub,2013-08-06 07:22:00,
2013-08-06 02:27:00,62.4,57.9,29.81,NW,323,0.0,0.0,85,0.00,,,0.00,meteohub,2013-08-06 07:27:00,
2013-08-06 02:32:00,62.2,57.7,29.81,NW,323,0.0,0.0,85,0.00,,,0.00,meteohub,2013-08-06 07:32:00,
2013-08-06 02:37:00,62.2,57.7,29.81,NW,323,0.0,0.0,85,0.00,,,0.00,meteohub,2013-08-06 07:37:00,
2013-08-06 02:42:00,62.1,57.7,29.81,NW,323,0.0,0.0,86,0.00,,,0.00,meteohub,2013-08-06 07:42:00,
2013-08-06 02:47:00,62.1,57.7,29.81,NW,323,0.0,0.0,86,0.00,,,0.00,meteohub,2013-08-06 07:47:00,
2013-08-06 02:52:00,61.9,57.6,29.81,NW,323,0.0,0.0,86,0.00,,,0.00,meteohub,2013-08-06 07:52:00,
2013-08-06 02:57:00,61.9,57.6,29.81,NW,323,0.0,0.0,86,0.00,,,0.00,meteohub,2013-08-06 07:57:00,
2013-08-06 03:02:00,61.7,57.4,29.81,NW,323,0.0,0.0,86,0.00,,,0.00,meteohub,2013-08-06 08:02:00,
2013-08-06 03:07:00,61.5,57.4,29.81,NW,323,0.0,0.0,86,0.00,,,0.00,meteohub,2013-08-06 08:07:00,
2013-08-06 03:12:00,61.5,57.4,29.81,NW,323,0.0,0.0,86,0.00,,,0.00,meteohub,2013-08-06 08:12:00,
2013-08-06 03:17:00,61.5,57.6,29.81,NW,323,0.0,0.0,87,0.00,,,0.00,meteohub,2013-08-06 08:17:00,
2013-08-06 03:22:00,61.5,57.6,29.81,NW,323,0.0,0.0,87,0.00,,,0.00,meteohub,2013-08-06 08:22:00,
2013-08-06 03:27:00,61.5,57.6,29.80,NW,323,0.0,0.0,87,0.00,,,0.00,meteohub,2013-08-06 08:27:00,
2013-08-06 03:32:00,61.3,57.4,29.80,NW,323,0.0,0.0,87,0.00,,,0.00,meteohub,2013-08-06 08:32:00,
2013-08-06 03:37:00,61.3,57.4,29.80,NW,323,0.0,0.0,87,0.00,,,0.00,meteohub,2013-08-06 08:37:00,
2013-08-06 03:42:00,61.3,57.4,29.80,NW,323,0.0,0.0,87,0.00,,,0.00,meteohub,2013-08-06 08:42:00,
2013-08-06 03:47:00,61.3,57.4,29.80,NW,323,0.0,0.0,87,0.00,,,0.00,meteohub,2013-08-06 08:47:00,
2013-08-06 03:52:00,61.5,57.9,29.80,NW,323,0.0,0.0,88,0.00,,,0.00,meteohub,2013-08-06 08:52:00,
2013-08-06 03:57:00,61.5,57.9,29.80,NW,323,0.0,0.0,88,0.00,,,0.00,meteohub,2013-08-06 08:57:00,
2013-08-06 04:02:00,61.3,57.7,29.80,NW,323,0.0,0.0,88,0.00,,,0.00,meteohub,2013-08-06 09:02:00,
2013-08-06 04:07:00,61.3,57.7,29.80,NW,323,0.0,0.0,88,0.00,,,0.00,meteohub,2013-08-06 09:07:00,
2013-08-06 04:12:00,61.3,57.7,29.79,NW,323,0.0,0.0,88,0.00,,,0.00,meteohub,2013-08-06 09:12:00,
2013-08-06 04:17:00,61.3,57.7,29.80,NW,323,0.0,0.0,88,0.00,,,0.00,meteohub,2013-08-06 09:17:00,
2013-08-06 04:22:00,61.2,57.6,29.79,NW,323,0.0,0.0,88,0.00,,,0.00,meteohub,2013-08-06 09:22:00,
2013-08-06 04:27:00,61.2,57.6,29.79,NW,323,0.0,0.0,88,0.00,,,0.00,meteohub,2013-08-06 09:27:00,
2013-08-06 04:32:00,61.0,57.4,29.79,NW,323,0.0,0.0,88,0.00,,,0.00,meteohub,2013-08-06 09:32:00,
2013-08-06 04:37:00,60.8,57.2,29.78,NW,323,0.0,0.0,88,0.00,,,0.00,meteohub,2013-08-06 09:37:00,
2013-08-06 04:43:00,60.6,57.0,29.79,NW,323,0.0,0.0,88,0.00,,,0.00,meteohub,2013-08-06 09:43:00,
2013-08-06 04:48:00,60.6,57.0,29.79,NW,323,0.0,0.0,88,0.00,,,0.00,meteohub,2013-08-06 09:48:00,
2013-08-06 04:53:00,60.4,56.8,29.79,NW,323,0.0,0.0,88,0.00,,,0.00,meteohub,2013-08-06 09:53:00,
2013-08-06 04:58:00,60.4,56.8,29.78,NW,323,0.0,0.0,88,0.00,,,0.00,meteohub,2013-08-06 09:58:00,
2013-08-06 05:03:00,60.3,56.7,29.78,NW,323,0.0,0.0,88,0.00,,,0.00,meteohub,2013-08-06 10:03:00,
2013-08-06 05:08:00,60.1,56.5,29.79,NW,323,0.0,0.0,88,0.00,,,0.00,meteohub,2013-08-06 10:08:00,
2013-08-06 05:13:00,60.1,56.5,29.79,NW,323,0.0,0.0,88,0.00,,,0.00,meteohub,2013-08-06 10:13:00,
2013-08-06 05:18:00,59.9,56.3,29.78,NW,323,0.0,0.0,88,0.00,,,0.00,meteohub,2013-08-06 10:18:00,
2013-08-06 05:23:00,59.7,56.1,29.79,NW,323,0.0,0.0,88,0.00,,,0.00,meteohub,2013-08-06 10:23:00,
2013-08-06 05:28:00,59.5,55.9,29.79,NW,323,0.0,0.0,88,0.00,,,0.00,meteohub,2013-08-06 10:28:00,
2013-08-06 05:33:00,59.5,55.9,29.79,NW,323,0.0,0.0,88,0.00,,,0.00,meteohub,2013-08-06 10:33:00,
2013-08-06 05:38:00,59.4,55.8,29.79,NW,323,0.0,0.0,88,0.00,,,0.00,meteohub,2013-08-06 10:38:00,
2013-08-06 05:43:00,59.2,55.6,29.79,NW,323,0.0,0.0,88,0.00,,,0.00,meteohub,2013-08-06 10:43:00,
2013-08-06 05:48:00,59.0,55.4,29.79,NW,323,0.0,0.0,88,0.00,,,0.00,meteohub,2013-08-06 10:48:00,
2013-08-06 05:54:00,59.0,55.4,29.80,NW,323,0.0,0.0,88,0.00,,,0.00,meteohub,2013-08-06 10:54:00,
2013-08-06 05:59:00,59.0,55.8,29.79,NW,323,0.0,0.0,89,0.00,,,0.00,meteohub,2013-08-06 10:59:00,
2013-08-06 06:04:00,59.0,55.8,29.80,NW,323,0.0,0.0,89,0.00,,,0.00,meteohub,2013-08-06 11:04:00,
2013-08-06 06:09:00,59.0,55.8,29.80,NW,323,0.0,0.0,89,0.00,,,0.00,meteohub,2013-08-06 11:09:00,
2013-08-06 06:14:00,58.8,55.6,29.80,NW,323,0.0,0.0,89,0.00,,,0.00,meteohub,2013-08-06 11:14:00,
2013-08-06 06:19:00,58.6,55.4,29.80,NW,323,0.0,0.0,89,0.00,,,0.00,meteohub,2013-08-06 11:19:00,
2013-08-06 06:24:00,58.6,55.4,29.81,NW,323,0.0,0.0,89,0.00,,,0.00,meteohub,2013-08-06 11:24:00,
2013-08-06 06:29:00,58.8,55.6,29.81,NW,323,0.0,0.0,89,0.00,,,0.00,meteohub,2013-08-06 11:29:00,
2013-08-06 06:34:00,58.8,55.6,29.80,NW,323,0.0,0.0,89,0.00,,,0.00,meteohub,2013-08-06 11:34:00,
2013-08-06 06:39:00,58.8,55.6,29.81,NW,323,0.0,0.0,89,0.00,,,0.00,meteohub,2013-08-06 11:39:00,
2013-08-06 06:44:00,58.8,55.6,29.81,NW,323,0.0,0.0,89,0.00,,,0.00,meteohub,2013-08-06 11:44:00,
2013-08-06 06:49:00,59.0,55.8,29.80,NW,323,0.0,0.0,89,0.00,,,0.00,meteohub,2013-08-06 11:49:00,
2013-08-06 06:54:00,59.0,55.8,29.80,NW,323,0.0,0.0,89,0.00,,,0.00,meteohub,2013-08-06 11:54:00,
2013-08-06 06:59:00,59.0,55.8,29.80,NW,323,0.0,0.0,89,0.00,,,0.00,meteohub,2013-08-06 11:59:00,
2013-08-06 07:05:00,59.0,55.8,29.80,NW,323,0.0,0.0,89,0.00,,,0.00,meteohub,2013-08-06 12:05:00,
2013-08-06 07:10:00,59.0,56.1,29.80,NW,323,0.0,0.0,90,0.00,,,0.00,meteohub,2013-08-06 12:10:00,
2013-08-06 07:15:00,59.2,56.3,29.80,NW,323,0.0,0.0,90,0.00,,,0.00,meteohub,2013-08-06 12:15:00,
2013-08-06 07:20:00,59.2,56.3,29.80,NW,323,0.0,0.0,90,0.00,,,0.00,meteohub,2013-08-06 12:20:00,
2013-08-06 07:25:00,59.4,56.5,29.79,NW,323,0.0,0.0,90,0.00,,,0.00,meteohub,2013-08-06 12:25:00,
2013-08-06 07:30:00,59.5,56.7,29.79,NW,323,0.0,0.0,90,0.00,,,0.00,meteohub,2013-08-06 12:30:00,
2013-08-06 07:35:00,59.5,56.7,29.80,ESE,105,0.0,0.0,90,0.00,,,0.00,meteohub,2013-08-06 12:35:00,
2013-08-06 07:40:00,59.7,56.8,29.80,ESE,105,0.0,0.0,90,0.00,,,0.00,meteohub,2013-08-06 12:40:00,
2013-08-06 07:45:00,60.1,57.2,29.80,ESE,105,0.0,1.0,90,0.00,,,0.00,meteohub,2013-08-06 12:45:00,
2013-08-06 07:50:00,60.3,57.4,29.79,ESE,105,0.0,1.0,90,0.00,,,0.00,meteohub,2013-08-06 12:50:00,
2013-08-06 07:55:00,60.4,57.6,29.79,ESE,105,0.0,1.0,90,0.00,,,0.00,meteohub,2013-08-06 12:55:00,
2013-08-06 08:00:00,60.4,57.6,29.80,ESE,105,0.0,0.0,90,0.00,,,0.00,meteohub,2013-08-06 13:00:00,
2013-08-06 08:05:00,60.6,57.9,29.80,ESE,105,0.0,0.0,91,0.00,,,0.00,meteohub,2013-08-06 13:05:00,
2013-08-06 08:10:00,60.8,58.1,29.80,ESE,105,0.0,0.0,91,0.00,,,0.00,meteohub,2013-08-06 13:10:00,
2013-08-06 08:16:00,61.0,58.3,29.80,ESE,103,0.0,0.0,91,0.00,,,0.00,meteohub,2013-08-06 13:16:00,
2013-08-06 08:21:00,61.2,58.5,29.80,ESE,102,0.0,1.0,91,0.00,,,0.00,meteohub,2013-08-06 13:21:00,
2013-08-06 08:26:00,61.3,58.6,29.80,ESE,102,0.0,1.0,91,0.00,,,0.00,meteohub,2013-08-06 13:26:00,
2013-08-06 08:31:00,61.5,58.8,29.80,ESE,102,0.0,1.0,91,0.00,,,0.00,meteohub,2013-08-06 13:31:00,
2013-08-06 08:36:00,61.7,59.0,29.80,NNW,334,0.0,2.0,91,0.00,,,0.00,meteohub,2013-08-06 13:36:00,
2013-08-06 08:41:00,61.9,59.2,29.80,NNW,334,0.0,2.0,91,0.00,,,0.00,meteohub,2013-08-06 13:41:00,
2013-08-06 08:46:00,62.1,59.4,29.81,NW,314,0.0,2.0,91,0.00,,,0.00,meteohub,2013-08-06 13:46:00,
2013-08-06 08:51:00,62.1,59.4,29.81,NW,314,0.0,0.0,91,0.00,,,0.00,meteohub,2013-08-06 13:51:00,
2013-08-06 08:56:00,62.2,59.5,29.80,NW,314,0.0,0.0,91,0.00,,,0.00,meteohub,2013-08-06 13:56:00,
2013-08-06 09:01:00,62.4,59.7,29.80,NW,314,0.0,0.0,91,0.00,,,0.00,meteohub,2013-08-06 14:01:00,
2013-08-06 09:06:00,62.8,60.1,29.80,NW,314,0.0,0.0,91,0.00,,,0.00,meteohub,2013-08-06 14:06:00,
2013-08-06 09:11:00,62.8,60.1,29.79,NW,314,0.0,0.0,91,0.00,,,0.00,meteohub,2013-08-06 14:11:00,
2013-08-06 09:17:00,63.0,60.3,29.79,NW,314,0.0,0.0,91,0.00,,,0.00,meteohub,2013-08-06 14:17:00,
2013-08-06 09:22:00,63.1,60.8,29.79,NW,314,0.0,0.0,92,0.00,,,0.00,meteohub,2013-08-06 14:22:00,
2013-08-06 09:27:00,63.3,60.6,29.79,NW,314,0.0,0.0,91,0.00,,,0.00,meteohub,2013-08-06 14:27:00,
2013-08-06 09:32:00,63.3,60.6,29.78,NW,314,0.0,0.0,91,0.00,,,0.00,meteohub,2013-08-06 14:32:00,
2013-08-06 09:37:00,63.7,61.3,29.78,NW,314,0.0,0.0,92,0.00,,,0.00,meteohub,2013-08-06 14:37:00,
2013-08-06 09:42:00,63.9,61.2,29.78,NW,314,0.0,0.0,91,0.00,,,0.00,meteohub,2013-08-06 14:42:00,
2013-08-06 09:47:00,63.9,61.2,29.78,NW,314,0.0,0.0,91,0.00,,,0.00,meteohub,2013-08-06 14:47:00,
2013-08-06 09:52:00,64.0,61.3,29.78,NW,315,0.0,0.0,91,0.00,,,0.00,meteohub,2013-08-06 14:52:00,
2013-08-06 09:57:00,64.2,61.5,29.78,NW,314,0.0,0.0,91,0.00,,,0.00,meteohub,2013-08-06 14:57:00,
2013-08-06 10:02:00,64.6,61.9,29.78,NW,314,0.0,0.0,91,0.00,,,0.00,meteohub,2013-08-06 15:02:00,
2013-08-06 10:07:00,64.8,62.1,29.78,NW,315,0.0,0.0,91,0.00,,,0.00,meteohub,2013-08-06 15:07:00,
2013-08-06 10:12:00,65.1,62.4,29.78,NW,314,0.0,0.0,91,0.00,,,0.00,meteohub,2013-08-06 15:12:00,
2013-08-06 10:17:00,65.1,62.4,29.79,NW,314,0.0,0.0,91,0.00,,,0.00,meteohub,2013-08-06 15:17:00,
2013-08-06 10:22:00,65.5,62.8,29.78,NW,314,0.0,0.0,91,0.00,,,0.00,meteohub,2013-08-06 15:22:00,
2013-08-06 10:27:00,65.7,63.0,29.78,NW,314,0.0,0.0,91,0.00,,,0.00,meteohub,2013-08-06 15:27:00,
2013-08-06 10:32:00,65.8,63.1,29.77,NW,314,0.0,0.0,91,0.00,,,0.00,meteohub,2013-08-06 15:32:00,
2013-08-06 10:37:00,66.0,63.3,29.78,NW,314,0.0,0.0,91,0.00,,,0.00,meteohub,2013-08-06 15:37:00,
2013-08-06 10:42:00,66.4,63.7,29.77,NW,315,0.0,0.0,91,0.00,,,0.00,meteohub,2013-08-06 15:42:00,
2013-08-06 10:47:00,66.6,63.5,29.77,WNW,290,0.0,0.0,90,0.00,,,0.00,meteohub,2013-08-06 15:47:00,
2013-08-06 10:52:00,66.7,63.7,29.77,WNW,288,0.0,1.0,90,0.00,,,0.00,meteohub,2013-08-06 15:52:00,
2013-08-06 10:57:00,66.9,63.9,29.76,WNW,290,0.0,1.0,90,0.00,,,0.00,meteohub,2013-08-06 15:57:00,
2013-08-06 11:02:00,67.3,64.2,29.76,WNW,290,0.0,1.0,90,0.00,,,0.00,meteohub,2013-08-06 16:02:00,
2013-08-06 11:07:00,67.6,64.6,29.76,WNW,290,0.0,1.0,90,0.00,,,0.00,meteohub,2013-08-06 16:07:00,
2013-08-06 11:12:00,68.0,64.6,29.77,WNW,292,0.0,2.0,89,0.00,,,0.00,meteohub,2013-08-06 16:12:00,
2013-08-06 11:17:00,68.5,65.1,29.76,WNW,291,0.0,2.0,89,0.00,,,0.00,meteohub,2013-08-06 16:17:00,
2013-08-06 11:22:00,68.7,64.9,29.77,WNW,292,0.0,2.0,88,0.00,,,0.00,meteohub,2013-08-06 16:22:00,
2013-08-06 11:27:00,68.9,65.1,29.77,WNW,291,0.0,0.0,88,0.00,,,0.00,meteohub,2013-08-06 16:27:00,
2013-08-06 11:32:00,69.1,65.3,29.77,WNW,291,0.0,0.0,88,0.00,,,0.00,meteohub,2013-08-06 16:32:00,
2013-08-06 11:37:00,69.4,65.5,29.77,WNW,292,0.0,1.0,87,0.00,,,0.00,meteohub,2013-08-06 16:37:00,
2013-08-06 11:42:00,69.4,65.5,29.76,WNW,292,0.0,1.0,87,0.00,,,0.00,meteohub,2013-08-06 16:42:00,
2013-08-06 11:47:00,69.6,65.3,29.76,WNW,287,0.0,1.0,86,0.00,,,0.00,meteohub,2013-08-06 16:47:00,
2013-08-06 11:52:00,70.0,65.7,29.76,WNW,292,0.0,1.0,86,0.00,,,0.00,meteohub,2013-08-06 16:52:00,
2013-08-06 11:57:00,70.3,65.7,29.75,West,277,0.0,2.0,85,0.00,,,0.00,meteohub,2013-08-06 16:57:00,
2013-08-06 12:02:00,70.5,65.5,29.75,West,277,0.0,5.0,84,0.00,,,0.00,meteohub,2013-08-06 17:02:00,
2013-08-06 12:07:00,70.9,65.8,29.75,NNW,342,0.0,5.0,84,0.00,,,0.00,meteohub,2013-08-06 17:07:00,
2013-08-06 12:12:00,71.1,65.7,29.75,NNW,330,0.0,1.0,83,0.00,,,0.00,meteohub,2013-08-06 17:12:00,
2013-08-06 12:17:00,71.2,65.8,29.75,NNW,331,0.0,4.0,83,0.00,,,0.00,meteohub,2013-08-06 17:17:00,
2013-08-06 12:22:00,71.8,66.4,29.75,NNW,331,0.0,4.0,83,0.00,,,0.00,meteohub,2013-08-06 17:22:00,
2013-08-06 12:27:00,72.1,66.4,29.75,WNW,287,0.0,1.0,82,0.00,,,0.00,meteohub,2013-08-06 17:27:00,
2013-08-06 12:32:00,72.5,66.7,29.75,WNW,286,0.0,3.0,82,0.00,,,0.00,meteohub,2013-08-06 17:32:00,
2013-08-06 12:37:00,73.0,66.9,29.75,WNW,300,0.0,3.0,81,0.00,,,0.00,meteohub,2013-08-06 17:37:00,
2013-08-06 12:42:00,73.4,66.9,29.75,WNW,299,0.0,3.0,80,0.00,,,0.00,meteohub,2013-08-06 17:42:00,
2013-08-06 12:47:00,73.9,67.5,29.75,WNW,299,0.0,2.0,80,0.00,,,0.00,meteohub,2013-08-06 17:47:00,
2013-08-06 12:52:00,74.5,67.1,29.74,WNW,300,0.0,2.0,78,0.00,,,0.00,meteohub,2013-08-06 17:52:00,
2013-08-06 12:57:00,74.8,67.5,29.73,WNW,300,0.0,1.0,78,0.00,,,0.00,meteohub,2013-08-06 17:57:00,
2013-08-06 13:02:00,75.4,67.6,29.73,WNW,300,0.0,1.0,77,0.00,,,0.00,meteohub,2013-08-06 18:02:00,
2013-08-06 13:07:00,75.7,67.6,29.73,WNW,290,0.0,1.0,76,0.00,,,0.00,meteohub,2013-08-06 18:07:00,
2013-08-06 13:12:00,76.5,68.4,29.73,NW,312,0.0,2.0,76,0.00,,,0.00,meteohub,2013-08-06 18:12:00,
2013-08-06 13:18:00,77.0,68.5,29.73,NW,319,0.0,3.0,75,0.00,,,0.00,meteohub,2013-08-06 18:18:00,
2013-08-06 13:23:00,77.5,68.9,29.73,WNW,298,0.0,3.0,75,0.00,,,0.00,meteohub,2013-08-06 18:23:00,
2013-08-06 13:28:00,78.1,68.7,29.72,NNW,345,0.0,3.0,73,0.00,,,0.00,meteohub,2013-08-06 18:28:00,
2013-08-06 13:33:00,78.6,68.9,29.72,NNW,329,0.0,3.0,72,0.00,,,0.00,meteohub,2013-08-06 18:33:00,
2013-08-06 13:38:00,79.3,69.4,29.72,WSW,257,1.0,5.0,72,0.00,,,0.00,meteohub,2013-08-06 18:38:00,
2013-08-06 13:43:00,79.9,68.7,29.72,WNW,298,0.0,9.0,69,0.00,,,0.00,meteohub,2013-08-06 18:43:00,
2013-08-06 13:48:00,80.2,68.4,29.72,WNW,300,0.0,9.0,67,0.00,,,0.00,meteohub,2013-08-06 18:48:00,
2013-08-06 13:53:00,81.0,68.9,29.72,WNW,295,0.0,9.0,67,0.00,,,0.00,meteohub,2013-08-06 18:53:00,
2013-08-06 13:58:00,81.3,69.3,29.72,West,279,0.0,9.0,67,0.00,,,0.00,meteohub,2013-08-06 18:58:00,
2013-08-06 14:03:00,81.9,69.8,29.72,West,279,0.0,9.0,67,0.00,,,0.00,meteohub,2013-08-06 19:03:00,
2013-08-06 14:08:00,82.6,70.5,29.71,West,279,0.0,3.0,67,0.00,,,0.00,meteohub,2013-08-06 19:08:00,
2013-08-06 14:13:00,82.8,68.9,29.71,WNW,283,1.0,2.0,63,0.00,,,0.00,meteohub,2013-08-06 19:13:00,
2013-08-06 14:18:00,83.1,69.3,29.71,WNW,288,1.0,5.0,63,0.00,,,0.00,meteohub,2013-08-06 19:18:00,
2013-08-06 14:24:00,83.7,69.8,29.71,West,274,0.0,5.0,63,0.00,,,0.00,meteohub,2013-08-06 19:24:00,
2013-08-06 14:29:00,83.7,69.3,29.71,WNW,291,0.0,5.0,62,0.00,,,0.00,meteohub,2013-08-06 19:29:00,
2013-08-06 14:34:00,83.8,70.0,29.70,WNW,299,0.0,5.0,63,0.00,,,0.00,meteohub,2013-08-06 19:34:00,
2013-08-06 14:39:00,84.0,69.1,29.70,West,273,2.0,4.0,61,0.00,,,0.00,meteohub,2013-08-06 19:39:00,
2013-08-06 14:44:00,84.4,69.4,29.70,West,275,2.0,6.0,61,0.00,,,0.00,meteohub,2013-08-06 19:44:00,
2013-08-06 14:49:00,84.6,69.1,29.70,WNW,295,0.0,7.0,60,0.00,,,0.00,meteohub,2013-08-06 19:49:00,
2013-08-06 14:54:00,84.7,68.9,29.70,West,275,0.0,7.0,59,0.00,,,0.00,meteohub,2013-08-06 19:54:00,
2013-08-06 14:59:00,84.7,68.4,29.70,NW,317,0.0,9.0,58,0.00,,,0.00,meteohub,2013-08-06 19:59:00,
2013-08-06 15:04:00,84.9,68.5,29.70,NW,311,1.0,9.0,58,0.00,,,0.00,meteohub,2013-08-06 20:04:00,
2013-08-06 15:09:00,84.9,68.5,29.70,WNW,282,0.0,9.0,58,0.00,,,0.00,meteohub,2013-08-06 20:09:00,
2013-08-06 15:14:00,85.3,69.3,29.70,WNW,296,0.0,11.0,59,0.00,,,0.00,meteohub,2013-08-06 20:14:00,
2013-08-06 15:19:00,85.5,69.1,29.69,West,279,6.0,11.0,58,0.00,,,0.00,meteohub,2013-08-06 20:19:00,
2013-08-06 15:24:00,85.3,68.9,29.69,WNW,303,0.0,11.0,58,0.00,,,0.00,meteohub,2013-08-06 20:24:00,
2013-08-06 15:29:00,85.5,69.4,29.69,WNW,284,3.0,6.0,59,0.00,,,0.00,meteohub,2013-08-06 20:29:00,
2013-08-06 15:34:00,85.5,69.1,29.69,NW,304,3.0,12.0,58,0.00,,,0.00,meteohub,2013-08-06 20:34:00,
2013-08-06 15:39:00,85.6,70.2,29.69,West,272,7.0,12.0,60,0.00,,,0.00,meteohub,2013-08-06 20:39:00,
2013-08-06 15:44:00,85.6,69.1,29.69,West,270,0.0,12.0,58,0.00,,,0.00,meteohub,2013-08-06 20:44:00,
2013-08-06 15:49:00,85.8,69.3,29.69,NW,321,0.0,11.0,58,0.00,,,0.00,meteohub,2013-08-06 20:49:00,
2013-08-06 15:54:00,86.0,68.9,29.69,West,273,0.0,11.0,57,0.00,,,0.00,meteohub,2013-08-06 20:54:00,
2013-08-06 15:59:00,86.0,68.9,29.68,North,355,3.0,5.0,57,0.00,,,0.00,meteohub,2013-08-06 20:59:00,
2013-08-06 16:04:00,86.0,68.9,29.68,WNW,291,4.0,6.0,57,0.00,,,0.00,meteohub,2013-08-06 21:04:00,
2013-08-06 16:10:00,85.8,69.3,29.69,NW,320,1.0,9.0,58,0.00,,,0.00,meteohub,2013-08-06 21:10:00,
2013-08-06 16:15:00,85.8,68.9,29.68,West,266,1.0,9.0,57,0.00,,,0.00,meteohub,2013-08-06 21:15:00,
2013-08-06 16:20:00,85.8,69.3,29.68,WNW,297,1.0,9.0,58,0.00,,,0.00,meteohub,2013-08-06 21:20:00,
2013-08-06 16:25:00,85.8,68.4,29.68,WNW,292,0.0,9.0,56,0.00,,,0.00,meteohub,2013-08-06 21:25:00,
2013-08-06 16:30:00,85.6,68.2,29.68,SW,233,2.0,9.0,56,0.00,,,0.00,meteohub,2013-08-06 21:30:00,
2013-08-06 16:35:00,85.6,68.7,29.68,WSW,254,0.0,9.0,57,0.00,,,0.00,meteohub,2013-08-06 21:35:00,
2013-08-06 16:40:00,85.5,68.5,29.68,WSW,252,1.0,9.0,57,0.00,,,0.00,meteohub,2013-08-06 21:40:00,
2013-08-06 16:45:00,85.3,68.4,29.68,WNW,292,1.0,9.0,57,0.00,,,0.00,meteohub,2013-08-06 21:45:00,
2013-08-06 16:50:00,85.3,68.9,29.68,West,275,0.0,8.0,58,0.00,,,0.00,meteohub,2013-08-06 21:50:00,
2013-08-06 16:55:00,85.5,69.1,29.68,West,261,0.0,8.0,58,0.00,,,0.00,meteohub,2013-08-06 21:55:00,
2013-08-06 17:00:00,85.5,68.5,29.68,WSW,250,1.0,4.0,57,0.00,,,0.00,meteohub,2013-08-06 22:00:00,
2013-08-06 17:05:00,85.6,68.7,29.68,West,264,0.0,7.0,57,0.00,,,0.00,meteohub,2013-08-06 22:05:00,
2013-08-06 17:10:00,85.5,68.5,29.68,West,280,0.0,7.0,57,0.00,,,0.00,meteohub,2013-08-06 22:10:00,
2013-08-06 17:15:00,85.5,68.5,29.68,SSW,203,0.0,7.0,57,0.00,,,0.00,meteohub,2013-08-06 22:15:00,
2013-08-06 17:21:00,85.5,68.5,29.68,North,0,0.0,6.0,57,0.00,,,0.00,meteohub,2013-08-06 22:21:00,
2013-08-06 17:26:00,85.3,68.4,29.68,NNW,329,1.0,6.0,57,0.00,,,0.00,meteohub,2013-08-06 22:26:00,
2013-08-06 17:31:00,85.3,68.9,29.68,West,262,5.0,5.0,58,0.00,,,0.00,meteohub,2013-08-06 22:31:00,
2013-08-06 17:36:00,85.1,67.6,29.68,NNE,26,1.0,5.0,56,0.00,,,0.00,meteohub,2013-08-06 22:36:00,
2013-08-06 17:41:00,84.9,67.5,29.68,NW,323,0.0,9.0,56,0.00,,,0.00,meteohub,2013-08-06 22:41:00,
2013-08-06 17:46:00,84.9,68.5,29.68,NNW,333,0.0,9.0,58,0.00,,,0.00,meteohub,2013-08-06 22:46:00,
2013-08-06 17:51:00,84.9,68.0,29.67,WSW,249,0.0,9.0,57,0.00,,,0.00,meteohub,2013-08-06 22:51:00,
2013-08-06 17:56:00,84.9,68.5,29.68,West,261,0.0,3.0,58,0.00,,,0.00,meteohub,2013-08-06 22:56:00,
2013-08-06 18:01:00,84.6,67.6,29.68,West,265,0.0,10.0,57,0.00,,,0.00,meteohub,2013-08-06 23:01:00,
2013-08-06 18:06:00,84.0,68.2,29.67,WNW,286,0.0,10.0,59,0.00,,,0.00,meteohub,2013-08-06 23:06:00,
2013-08-06 18:11:00,83.8,68.0,29.67,WNW,287,0.0,10.0,59,0.00,,,0.00,meteohub,2013-08-06 23:11:00,
2013-08-06 18:16:00,83.7,68.4,29.67,NNW,348,0.0,3.0,60,0.00,,,0.00,meteohub,2013-08-06 23:16:00,
2013-08-06 18:21:00,83.1,68.4,29.67,NW,305,0.0,3.0,61,0.00,,,0.00,meteohub,2013-08-06 23:21:00,
2013-08-06 18:27:00,82.9,68.2,29.66,WNW,287,1.0,2.0,61,0.00,,,0.00,meteohub,2013-08-06 23:27:00,
2013-08-06 18:32:00,82.8,68.0,29.67,West,263,0.0,2.0,61,0.00,,,0.00,meteohub,2013-08-06 23:32:00,
2013-08-06 18:37:00,82.6,67.8,29.67,West,263,0.0,4.0,61,0.00,,,0.00,meteohub,2013-08-06 23:37:00,
2013-08-06 18:42:00,82.2,67.5,29.67,WNW,283,1.0,4.0,61,0.00,,,0.00,meteohub,2013-08-06 23:42:00,
2013-08-06 18:47:00,82.2,68.4,29.66,WNW,283,0.0,3.0,63,0.00,,,0.00,meteohub,2013-08-06 23:47:00,
2013-08-06 18:52:00,81.9,67.6,29.65,WNW,286,0.0,4.0,62,0.00,,,0.00,meteohub,2013-08-06 23:52:00,
2013-08-06 18:57:00,81.7,67.8,29.65,WNW,295,0.0,4.0,63,0.00,,,0.00,meteohub,2013-08-06 23:57:00,
2013-08-06 19:02:00,81.3,67.5,29.66,WNW,295,0.0,4.0,63,0.00,,,0.00,meteohub,2013-08-07 00:02:00,
2013-08-06 19:07:00,81.3,67.5,29.65,WNW,295,0.0,3.0,63,0.00,,,0.00,meteohub,2013-08-07 00:07:00,
2013-08-06 19:12:00,81.0,67.1,29.64,WNW,287,0.0,3.0,63,0.00,,,0.00,meteohub,2013-08-07 00:12:00,
2013-08-06 19:17:00,80.8,67.5,29.64,West,265,0.0,2.0,64,0.00,,,0.00,meteohub,2013-08-07 00:17:00,
2013-08-06 19:22:00,80.4,67.1,29.63,West,265,0.0,4.0,64,0.00,,,0.00,meteohub,2013-08-07 00:22:00,
2013-08-06 19:27:00,80.2,67.5,29.64,West,265,0.0,4.0,65,0.00,,,0.00,meteohub,2013-08-07 00:27:00,
2013-08-06 19:32:00,80.1,67.3,29.63,West,265,0.0,1.0,65,0.00,,,0.00,meteohub,2013-08-07 00:32:00,
2013-08-06 19:37:00,79.9,67.5,29.63,West,265,0.0,1.0,66,0.00,,,0.00,meteohub,2013-08-07 00:37:00,
2013-08-06 19:42:00,79.5,67.1,29.69,East,83,0.0,1.0,66,0.00,,,0.00,meteohub,2013-08-07 00:42:00,
2013-08-06 19:47:00,78.3,66.7,29.68,East,83,9.0,11.0,68,0.00,,,0.00,meteohub,2013-08-07 00:47:00,
2013-08-06 19:52:00,75.9,65.5,29.66,NNW,337,0.0,11.0,70,0.05,,,0.05,meteohub,2013-08-07 00:52:00,
2013-08-06 19:57:00,74.7,64.6,29.69,NE,45,0.0,11.0,71,0.08,,,0.08,meteohub,2013-08-07 00:57:00,
2013-08-06 20:02:00,73.8,64.6,29.70,NE,45,0.0,11.0,73,0.08,,,0.08,meteohub,2013-08-07 01:02:00,
2013-08-06 20:07:00,73.0,64.6,29.69,NE,45,0.0,3.0,75,0.08,,,0.08,meteohub,2013-08-07 01:07:00,
2013-08-06 20:13:00,72.3,64.4,29.69,NE,45,0.0,1.0,76,0.08,,,0.08,meteohub,2013-08-07 01:13:00,
2013-08-06 20:18:00,71.8,64.2,29.69,NE,45,0.0,1.0,77,0.08,,,0.08,meteohub,2013-08-07 01:18:00,
2013-08-06 20:23:00,71.2,63.7,29.69,NE,45,0.0,1.0,77,0.08,,,0.08,meteohub,2013-08-07 01:23:00,
2013-08-06 20:28:00,70.9,63.7,29.68,NE,45,0.0,1.0,78,0.08,,,0.08,meteohub,2013-08-07 01:28:00,
2013-08-06 20:33:00,70.3,63.5,29.68,NE,44,0.0,1.0,79,0.08,,,0.08,meteohub,2013-08-07 01:33:00,
2013-08-06 20:38:00,70.2,64.0,29.71,NE,44,1.0,0.0,81,0.09,,,0.09,meteohub,2013-08-07 01:38:00,
2013-08-06 20:43:00,69.6,63.9,29.72,East,81,4.0,4.0,82,0.11,,,0.11,meteohub,2013-08-07 01:43:00,
2013-08-06 20:48:00,69.1,63.7,29.74,East,91,2.0,5.0,83,0.21,,,0.22,meteohub,2013-08-07 01:48:00,
2013-08-06 20:53:00,67.6,62.2,29.75,ENE,62,4.0,7.0,83,0.16,,,0.23,meteohub,2013-08-07 01:53:00,
2013-08-06 20:58:00,66.7,61.7,29.76,NE,34,0.0,7.0,84,0.16,,,0.24,meteohub,2013-08-07 01:58:00,
2013-08-06 21:03:00,66.4,61.3,29.75,North,0,0.0,7.0,84,0.24,,,0.32,meteohub,2013-08-07 02:03:00,
2013-08-06 21:08:00,66.0,61.3,29.75,North,5,0.0,7.0,85,0.28,,,0.36,meteohub,2013-08-07 02:08:00,
2013-08-06 21:13:00,65.8,61.2,29.74,North,5,0.0,3.0,85,0.28,,,0.36,meteohub,2013-08-07 02:13:00,
2013-08-06 21:19:00,65.7,61.0,29.73,North,0,0.0,3.0,85,0.28,,,0.36,meteohub,2013-08-07 02:19:00,
2013-08-06 21:24:00,65.7,61.3,29.70,North,0,0.0,0.0,86,0.28,,,0.36,meteohub,2013-08-07 02:24:00,
2013-08-06 21:29:00,65.5,61.2,29.69,North,5,0.0,0.0,86,0.28,,,0.36,meteohub,2013-08-07 02:29:00,
2013-08-06 21:34:00,65.3,61.0,29.69,North,0,0.0,0.0,86,0.28,,,0.36,meteohub,2013-08-07 02:34:00,
2013-08-06 21:39:00,65.1,60.8,29.68,North,0,0.0,0.0,86,0.27,,,0.36,meteohub,2013-08-07 02:39:00,
2013-08-06 21:44:00,64.9,60.6,29.68,North,5,0.0,0.0,86,0.16,,,0.36,meteohub,2013-08-07 02:44:00,
2013-08-06 21:49:00,64.9,61.0,29.69,North,5,0.0,0.0,87,0.13,,,0.36,meteohub,2013-08-07 02:49:00,
2013-08-06 21:54:00,64.8,60.8,29.69,North,0,0.0,0.0,87,0.13,,,0.36,meteohub,2013-08-07 02:54:00,
2013-08-06 21:59:00,64.8,60.8,29.69,North,0,0.0,0.0,87,0.11,,,0.36,meteohub,2013-08-07 02:59:00,
2013-08-06 22:04:00,64.6,60.6,29.70,North,5,0.0,0.0,87,0.02,,,0.36,meteohub,2013-08-07 03:04:00,
2013-08-06 22:09:00,64.4,60.4,29.70,North,5,0.0,0.0,87,0.00,,,0.36,meteohub,2013-08-07 03:09:00,
2013-08-06 22:14:00,64.2,60.3,29.71,North,0,0.0,0.0,87,0.00,,,0.36,meteohub,2013-08-07 03:14:00,
2013-08-06 22:20:00,64.2,60.3,29.71,North,5,0.0,0.0,87,0.00,,,0.36,meteohub,2013-08-07 03:20:00,
2013-08-06 22:25:00,64.0,60.1,29.71,North,5,0.0,0.0,87,0.00,,,0.36,meteohub,2013-08-07 03:25:00,
2013-08-06 22:30:00,64.0,60.1,29.72,North,0,0.0,0.0,87,0.00,,,0.36,meteohub,2013-08-07 03:30:00,
2013-08-06 22:35:00,63.9,59.9,29.72,North,5,0.0,0.0,87,0.00,,,0.36,meteohub,2013-08-07 03:35:00,
2013-08-06 22:40:00,63.9,60.3,29.72,North,5,0.0,0.0,88,0.00,,,0.36,meteohub,2013-08-07 03:40:00,
2013-08-06 22:45:00,63.7,60.1,29.72,North,5,0.0,0.0,88,0.00,,,0.36,meteohub,2013-08-07 03:45:00,
2013-08-06 22:50:00,63.5,59.9,29.72,North,0,0.0,0.0,88,0.00,,,0.36,meteohub,2013-08-07 03:50:00,
2013-08-06 22:55:00,63.3,59.7,29.73,North,5,0.0,0.0,88,0.01,,,0.37,meteohub,2013-08-07 03:55:00,
2013-08-06 23:00:00,63.3,59.7,29.73,North,5,0.0,0.0,88,0.01,,,0.37,meteohub,2013-08-07 04:00:00,
2013-08-06 23:01:00,63.3,59.7,29.73,North,5,0.0,0.0,88,0.01,,,0.37,meteohub,2013-08-07 04:01:00,
2013-08-06 23:02:00,63.3,59.7,29.74,North,5,0.0,0.0,88,0.01,,,0.37,meteohub,2013-08-07 04:02:00,
2013-08-06 23:03:00,63.3,59.7,29.74,North,5,0.0,0.0,88,0.01,,,0.37,meteohub,2013-08-07 04:03:00,
2013-08-06 23:04:00,63.3,59.7,29.74,North,5,0.0,0.0,88,0.01,,,0.37,meteohub,2013-08-07 04:04:00,
2013-08-06 23:09:00,63.3,59.7,29.75,North,0,0.0,0.0,88,0.01,,,0.37,meteohub,2013-08-07 04:09:00,
2013-08-06 23:14:00,63.5,60.3,29.75,North,0,0.0,0.0,89,0.01,,,0.37,meteohub,2013-08-07 04:14:00,
2013-08-06 23:19:00,63.3,60.1,29.75,North,5,0.0,0.0,89,0.01,,,0.37,meteohub,2013-08-07 04:19:00,
2013-08-06 23:24:00,63.3,60.1,29.75,North,0,0.0,0.0,89,0.01,,,0.37,meteohub,2013-08-07 04:24:00,
2013-08-06 23:29:00,63.3,60.1,29.75,North,5,0.0,0.0,89,0.01,,,0.37,meteohub,2013-08-07 04:29:00,
2013-08-06 23:34:00,63.1,59.9,29.75,North,5,0.0,0.0,89,0.01,,,0.37,meteohub,2013-08-07 04:34:00,
2013-08-06 23:39:00,63.1,59.9,29.75,North,0,0.0,0.0,89,0.01,,,0.37,meteohub,2013-08-07 04:39:00,
2013-08-06 23:44:00,63.1,59.9,29.75,North,5,0.0,0.0,89,0.01,,,0.37,meteohub,2013-08-07 04:44:00,
2013-08-06 23:49:00,63.0,59.7,29.75,North,5,0.0,0.0,89,0.01,,,0.37,meteohub,2013-08-07 04:49:00,
2013-08-06 23:54:00,63.0,59.7,29.75,North,0,0.0,0.0,89,0.00,,,0.37,meteohub,2013-08-07 04:54:00,
2013-08-06 23:59:00,62.8,59.5,29.75,North,5,0.0,0.0,89,0.00,,,0.37,meteohub,2013-08-07 04:59:00,